PDT,Max TemperatureF,Mean TemperatureF,Min TemperatureF,Max Dew PointF,MeanDew PointF,Min DewpointF,Max Humidity, Mean Humidity, Min Humidity, Max Sea Level PressureIn, Mean Sea Level PressureIn, Min Sea Level PressureIn, Max VisibilityMiles, Mean VisibilityMiles, Min VisibilityMiles, Max Wind SpeedMPH, Mean Wind SpeedMPH, Max Gust SpeedMPH,PrecipitationIn, CloudCover, Events, WindDirDegrees
2011-10-1,62,58,53,48,46,43,72,66,55,29.91,29.86,29.80,9,9,9,24,11,38,0.00,1,,189
2011-10-2,60,53,46,46,45,43,93,72,52,30.01,29.93,29.87,9,9,9,15,7,25,0.00,2,,181
2011-10-3,57,54,50,52,50,48,100,89,77,29.85,29.77,29.73,9,8,2,22,6,37,0.00,0,,188
2011-10-4,62,55,46,48,44,39,93,67,48,29.69,29.60,29.54,9,9,9,24,15,36,0.00,1,,194
2011-10-5,51,46,42,50,46,43,100,97,87,29.75,29.59,29.52,9,9,9,7,3,,0.00,5,,45
2011-10-6,64,55,46,50,47,45,100,83,52,29.92,29.84,29.77,9,9,9,30,9,41,0.00,3,,186
2011-10-7,57,54,48,50,48,45,100,86,63,30.20,30.04,29.87,9,9,7,24,14,36,0.00,4,,181
2011-10-8,62,53,44,46,44,37,100,74,42,30.23,30.08,29.92,9,9,9,25,8,39,0.00,1,,235
2011-10-9,66,60,53,48,46,39,82,71,37,30.01,29.91,29.83,9,9,9,30,21,41,0.00,0,,200
2011-10-10,55,50,46,48,45,43,93,82,67,29.81,29.54,29.43,9,9,9,29,8,36,0.00,2,,194
2011-10-11,57,54,50,48,47,43,94,80,67,29.84,29.62,29.44,9,9,9,33,19,41,0.00,2,,206
2011-10-12,57,54,50,46,44,41,82,73,59,30.17,30.03,29.87,9,9,9,28,22,43,0.00,1,,204
2011-10-13,60,50,39,41,39,36,100,80,39,30.30,30.23,30.14,9,9,9,17,6,23,0.00,1,,164
2011-10-14,55,46,37,39,36,32,93,83,41,30.17,30.09,29.98,9,9,9,8,1,,0.00,2,,181
2011-10-15,55,44,33,39,36,34,100,96,47,30.22,30.14,30.08,9,4,0,5,2,,0.00,6,,27
2011-10-16,51,42,32,39,35,32,100,91,50,30.27,30.17,30.12,9,5,0,5,1,,0.00,6,,166
2011-10-17,60,52,44,43,38,36,87,63,42,30.41,30.35,30.27,9,9,9,25,10,30,0.00,0,,181
2011-10-18,60,48,37,45,40,37,100,93,48,30.43,30.32,30.02,9,4,0,9,1,,0.00,4,,162
2011-10-19,68,54,41,48,42,41,100,89,40,29.99,29.93,29.79,9,6,0,24,3,41,0.00,5,,176
2011-10-20,60,55,50,50,47,39,100,77,58,30.07,29.97,29.91,9,9,9,20,14,31,0.00,2,,188
2011-10-21,60,52,44,46,43,37,81,67,52,30.11,29.97,29.88,9,9,9,30,17,45,0.00,1,,201
2011-10-22,57,54,51,46,43,36,82,67,44,30.06,29.99,29.92,9,9,9,30,21,44,0.00,1,,201
2011-10-23,57,49,41,45,38,34,93,63,44,30.17,30.08,30.02,9,9,9,24,12,33,0.00,1,,185
2011-10-24,51,43,35,39,36,34,100,82,58,30.36,30.21,30.08,9,9,9,24,7,30,0.00,2,,180
2011-10-25,55,44,33,39,34,32,100,90,41,30.53,30.46,30.38,9,6,0,20,3,22,0.00,5,,175
2011-10-26,53,47,41,36,33,30,70,58,47,30.36,30.13,29.99,9,9,9,31,22,53,0.00,1,,197
2011-10-27,51,42,33,36,33,30,93,73,44,30.38,30.27,30.17,9,9,9,13,5,22,0.00,1,,99
2011-10-28,55,46,37,43,38,30,93,78,41,30.14,29.84,29.74,9,9,6,32,14,40,0.00,3,,191
2011-10-29,51,43,35,41,37,34,93,74,58,30.23,30.15,29.94,9,9,9,24,11,37,0.00,1,,201
2011-10-30,55,52,48,45,39,36,82,65,58,30.09,29.92,29.81,9,9,9,31,26,48,0.00,1,,201
2011-10-31,51,48,42,39,37,34,71,66,54,30.41,30.20,30.00,9,9,9,22,16,33,0.00,1,,194